www.pogodaiklimat.ru

Погода и климат >> Архив погоды >> Германия >> Berlin


АРХИВ ПОГОДЫ в Berlin

Время (UTC), дата Ветер
(напр.,м/с)
 
Видим.   Явления Облачность Т
(С)
Тd
(С)
f
(%)
Тe
(С)
Тes
(С)
Комфортность P
(гПа)
Po
(гПа)
Тmin
(С)
Tmax
(С)
R
(мм)
S
(см)
16 15.02 Ю 2-3
{4}
н/о н/о +10.4 -3.3 38 +10 +10 тепло 1033.2 1027.1
17 15.02 Ю 2-2
{3}
н/о н/о +8.9 -3.3 42 +8 +8 тепло 1033.1 1027.0
18 15.02 Ю 1 н/о н/о +6.5 -3.6 48 +6 +6 тепло 1033.3 1027.1 -2.5 +11.3
19 15.02 Ю 1-1
{2}
н/о н/о +5.3 -3.7 52 +5 +5 тепло 1033.2 1027.0
20 15.02 Ю 1-2
{2}
н/о н/о +4.4 -3.8 55 +4 +4 тепло 1032.6 1026.4
21 15.02 З 1-1
{2}
н/о н/о +0.9 -4.6 67 -1 -1 по сезону 1032.4 1026.1
22 15.02 ЮЗ 1-1
{2}
н/о н/о +1.1 -3.9 69 -0 -0 тепло 1032.3 1026.0
23 15.02 ЮЗ 1-2
{2}
н/о н/о +1.1 -3.8 70 -0 -0 тепло 1032.2 1025.9
00 16.02 Ю 1 н/о н/о +0.4 -3.6 74 -1 -1 по сезону 1031.7 1025.4
01 16.02 ЮЗ 1-1
{1}
н/о н/о -0.5 -4.1 77 -2 -2 тепло 1031.4 1025.1
02 16.02 Ю 1-2
{3}
н/о н/о -1.1 -4.3 79 -3 -3 тепло 1031.3 1025.0
03 16.02 ЮЗ 1-1
{3}
н/о н/о -0.8 -3.5 82 -3 -3 по сезону 1031.0 1024.7
04 16.02 ЮЗ 1-2
{2}
н/о н/о -0.4 -3.3 81 -2 -2 тепло 1030.9 1024.6
05 16.02 ЮЗ 1-2
{2}
н/о н/о -0.5 -3.2 82 -2 -2 тепло 1030.6 1024.3
06 16.02 ЮЗ 1 н/о н/о -0.8 -3.1 84 -3 -3 по сезону 1030.6 1024.3 -1.4 +6.3
07 16.02 Ю 1-2
{3}
н/о н/о -0.7 -3.0 84 -3 -3 тепло 1030.4 1024.1
08 16.02 ЮЗ 1-2
{3}
н/о н/о +1.3 -1.9 79 -0 -0 тепло 1030.3 1024.1
09 16.02 ЮЗ 2 н/о н/о +3.6 -0.9 72 +1 +1 по сезону 1030.1 1023.9
10 16.02 ЮЗ 2-4
{4}
н/о н/о +6.8 +0.4 64 +5 +5 тепло 1029.8 1023.7
11 16.02 З 2-4
{4}
н/о н/о +10.0 +2.3 59 +9 +9 тепло 1029.3 1023.3
12 16.02 З 4-6
{8}
н/о н/о +11.4 +4.0 60 +9 +9 тепло 1028.7 1022.7
13 16.02 З 4-6
{6}
н/о н/о +12.8 +5.1 59 +11 +11 тепло 1028.0 1022.0
14 16.02 З 4-6
{7}
н/о н/о +12.8 +5.0 59 +11 +11 тепло 1027.3 1021.3
15 16.02 З 2-4
{7}
н/о н/о +12.0 +4.6 61 +11 +11 тепло 1026.9 1020.9
16 16.02 З 3-3
{5}
н/о н/о +11.4 +4.6 63 +10 +10 тепло 1026.5 1020.5
17 16.02 З 2-2
{4}
н/о н/о +10.5 +4.6 67 +9 +9 тепло 1026.5 1020.5
18 16.02 ЮЗ 2 н/о н/о +9.8 +4.4 69 +8 +8 тепло 1026.0 1020.0 -0.9 +13.3
19 16.02 ЮЗ 3-5
{5}
н/о н/о +9.3 +4.9 74 +7 +7 тепло 1025.7 1019.7
20 16.02 ЮЗ 3-5
{5}
н/о н/о +8.5 +4.9 78 +6 +6 тепло 1025.6 1019.5
21 16.02 ЮЗ 2-4
{5}
н/о н/о +7.9 +4.7 80 +6 +6 тепло 1024.8 1018.7
22 16.02 ЮЗ 3-4
{4}
н/о н/о +7.4 +4.5 82 +5 +5 тепло 1024.6 1018.5
23 16.02 ЮЗ 3-5
{5}
н/о н/о +6.9 +5.0 88 +4 +4 тепло 1024.2 1018.1
00 17.02 ЮЗ 3 н/о н/о +6.8 +4.7 86 +4 +4 тепло 1023.9 1017.8 0.2
01 17.02 ЮЗ 3-4
{5}
н/о н/о +6.6 +4.6 87 +3 +3 тепло 1023.3 1017.2
02 17.02 ЮЗ 2-3
{5}
н/о н/о +5.7 +4.1 89 +3 +3 тепло 1022.8 1016.7
03 17.02 ЮЗ 2-3
{5}
н/о н/о +5.1 +3.8 91 +2 +2 тепло 1022.3 1016.2
04 17.02 З 2-3
{3}
н/о н/о +4.7 +3.4 91 +2 +2 тепло 1022.0 1015.9
05 17.02 ЮЗ 3-3
{4}
н/о н/о +4.6 +3.2 91 +1 +1 тепло 1021.6 1015.5
06 17.02 ЮЗ 2 н/о н/о +4.2 +2.9 91 +1 +1 тепло 1021.1 1015.0 +4.2 +9.9 0.2
07 17.02 ЮЗ 3-4
{4}
н/о н/о +3.9 +2.9 93 0 0 тепло 1021.1 1015.0
08 17.02 ЮЗ 3-4
{5}
н/о н/о +4.3 +3.2 93 +1 +1 тепло 1020.9 1014.8
09 17.02 ЮЗ 3 н/о н/о +4.7 +3.7 93 +1 +1 по сезону 1020.7 1014.6 0.7
10 17.02 ЮЗ 3-6
{6}
н/о н/о +5.3 +4.1 92 +2 +2 тепло 1020.6 1014.5
11 17.02 ЮЗ 3-5
{6}
н/о н/о +6.0 +4.5 90 +3 +3 тепло 1020.5 1014.4
12 17.02 З 4-6
{6}
н/о н/о +6.3 +4.5 88 +2 +2 по сезону 1020.1 1014.0 0.1
13 17.02 З 5-7
{7}
н/о н/о +6.3 +4.4 88 +2 +2 тепло 1020.0 1013.9
14 17.02 З 4-6
{7}
н/о н/о +6.2 +4.5 89 +2 +2 тепло 1020.0 1013.9
15 17.02 З 4-5
{7}
н/о н/о +6.0 +5.0 93 +2 +2 по сезону 1020.2 1014.1 0.4
16 17.02 З 4-5
{6}
н/о н/о +5.8 +4.8 93 +2 +2 тепло 1020.4 1014.3
17 17.02 З 3-5
{5}
н/о н/о +5.7 +4.8 94 +2 +2 тепло 1020.9 1014.8
18 17.02 З 4 н/о н/о +5.6 +4.7 94 +1 +1 по сезону 1021.6 1015.5 +3.8 +6.5 0.4
19 17.02 З 3-5
{5}
н/о н/о +5.6 +4.7 94 +2 +2 тепло 1021.9 1015.8
20 17.02 СЗ 5-7
{7}
н/о н/о +5.3 +4.3 93 +1 +1 тепло 1022.5 1016.4
21 17.02 СЗ 3-4
{7}
н/о н/о +4.9 +4.1 95 +1 +1 тепло 1023.0 1016.9 0.3
22 17.02 СЗ 2-3
{5}
н/о н/о +4.9 +3.9 93 +2 +2 тепло 1023.1 1017.0
23 17.02 З 4-5
{5}
н/о н/о +5.1 +4.4 95 +1 +1 тепло 1023.2 1017.1
00 18.02 З 4 н/о н/о +5.1 +4.5 96 +1 +1 тепло 1023.5 1017.4 0.2
01 18.02 СЗ 4-6
{7}
н/о н/о +4.9 +4.0 94 +1 +1 тепло 1023.5 1017.4
02 18.02 З 4-6
{6}
н/о н/о +4.5 +3.5 93 0 0 тепло 1023.5 1017.4
03 18.02 З 4-6
{7}
н/о н/о +4.4 +3.4 93 -0 -0 тепло 1023.5 1017.4
04 18.02 З 4-5
{6}
н/о н/о +4.3 +3.3 93 -0 -0 тепло 1023.8 1017.7
05 18.02 З 3-6
{6}
н/о н/о +4.2 +3.1 93 0 0 тепло 1024.1 1018.0
06 18.02 З 3 н/о н/о +4.1 +3.0 93 0 0 тепло 1024.4 1018.3 +4.0 +5.6 0.5
07 18.02 З 3-4
{5}
н/о н/о +3.9 +3.0 94 -0 -0 тепло 1024.6 1018.5
08 18.02 З 4-5
{5}
н/о н/о +4.0 +3.1 94 -1 -1 тепло 1025.0 1018.9
09 18.02 З 3 н/о н/о +4.0 +3.1 94 0 0 по сезону 1025.4 1019.2 0.1
10 18.02 З 3-5
{6}
н/о н/о +4.1 +3.2 94 0 0 тепло 1025.5 1019.4
11 18.02 З 4-5
{6}
н/о н/о +4.2 +2.7 90 -0 -0 тепло 1025.7 1019.6
12 18.02 З 5-7
{7}
н/о н/о +4.0 +2.5 90 -1 -1 по сезону 1025.8 1019.6 0.1
13 18.02 З 5-8
{8}
н/о н/о +4.0 +1.9 86 -1 -1 тепло 1025.8 1019.6
14 18.02 З 3-5
{8}
н/о н/о +4.0 +1.5 84 0 0 тепло 1025.8 1019.6
15 18.02 З 2-3
{8}
н/о н/о +4.4 +1.8 83 +2 +2 по сезону 1025.5 1019.4
16 18.02 ЮЗ 2-3
{4}
н/о н/о +4.2 +1.4 82 +1 +1 тепло 1025.7 1019.5
17 18.02 З 3-5
{5}
н/о н/о +4.3 +1.8 84 +1 +1 тепло 1025.8 1019.7
18 18.02 З 3 н/о н/о +4.2 +1.7 84 +1 +1 по сезону 1026.1 1019.9 +3.8 +4.4 0.2
19 18.02 З 3-6
{6}
н/о н/о +4.2 +1.6 83 +1 +1 тепло 1025.9 1019.7
20 18.02 З 3-5
{5}
н/о н/о +4.1 +1.5 83 0 0 тепло 1025.8 1019.6
21 18.02 З 4-6
{6}
н/о н/о +3.9 +1.0 81 -1 -1 по сезону 1025.9 1019.7
22 18.02 ЮЗ 4-6
{6}
н/о н/о +3.7 +0.6 80 -1 -1 тепло 1025.8 1019.6
23 18.02 ЮЗ 2-4
{6}
н/о н/о +3.6 +0.3 79 +1 +1 тепло 1025.4 1019.2
00 19.02 ЮЗ 3 н/о н/о +3.4 +0.4 81 -0 -0 по сезону 1025.1 1018.9
01 19.02 З 2-3
{4}
н/о н/о +3.3 +0.8 84 0 0 тепло 1024.8 1018.6
02 19.02 ЮЗ 3-5
{5}
н/о н/о +3.4 +0.8 83 -1 -1 тепло 1024.0 1017.8
03 19.02 ЮЗ 3-6
{6}
н/о н/о +3.5 +0.5 81 -0 -0 тепло 1023.5 1017.3
04 19.02 ЮЗ 3-5
{6}
н/о н/о +3.3 +0.3 81 -1 -1 тепло 1023.2 1017.0
05 19.02 ЮЗ 3-4
{5}
н/о н/о +2.4 -0.1 84 -2 -2 тепло 1022.7 1016.5
06 19.02 ЮЗ 3 н/о н/о +1.4 -0.6 87 -3 -3 по сезону 1022.1 1015.9 +1.4 +4.2
07 19.02 ЮЗ 3-5
{5}
н/о н/о +1.1 -0.8 87 -3 -3 тепло 1022.1 1015.9
08 19.02 ЮЗ 4-6
{6}
н/о н/о +2.0 -0.5 83 -3 -3 по сезону 1021.9 1015.7
09 19.02 ЮЗ 5 н/о н/о +3.3 -0.1 78 -2 -2 по сезону 1021.1 1015.0
10 19.02 ЮЗ 4-6
{7}
н/о н/о +4.1 +0.4 77 -0 -0 тепло 1020.7 1014.6
11 19.02 ЮЗ 5-7
{8}
н/о н/о +5.0 +0.6 73 +1 +1 тепло 1020.5 1014.4
12 19.02 ЮЗ 5-7
{9}
н/о н/о +5.9 +0.8 70 +2 +2 по сезону 1019.3 1013.2
13 19.02 ЮЗ 5-9
{9}
н/о н/о +7.3 +1.6 67 +4 +4 тепло 1018.6 1012.6
14 19.02 ЮЗ 4-7
{9}
н/о н/о +7.4 +1.7 67 +4 +4 тепло 1018.1 1012.1
15 19.02 ЮЗ 5-8
{9}
н/о н/о +7.1 +1.6 68 +3 +3 тепло 1018.1 1012.1
16 19.02 З 4-6
{9}
н/о н/о +6.0 +3.5 84 +2 +2 тепло 1018.1 1012.0
17 19.02 ЮЗ 4-6
{6}
н/о н/о +5.6 +3.7 88 +2 +2 тепло 1017.9 1011.8
18 19.02 ЮЗ 4 н/о н/о +5.3 +3.9 91 +1 +1 по сезону 1017.9 1011.8 +1.0 +7.8 1
19 19.02 ЮЗ 4-6
{6}
н/о н/о +5.1 +4.0 93 +1 +1 тепло 1017.9 1011.8
20 19.02 ЮЗ 4-5
{7}
н/о н/о +5.1 +3.9 92 +1 +1 тепло 1018.2 1012.1
21 19.02 З 4-6
{7}
н/о н/о +5.1 +3.7 91 +1 +1 по сезону 1018.3 1012.2
22 19.02 ЮЗ 3-5
{6}
н/о н/о +5.0 +4.1 94 +1 +1 тепло 1018.2 1012.1
23 19.02 З 3-5
{6}
н/о н/о +5.0 +4.2 95 +1 +1 тепло 1018.3 1012.2
00 20.02 З 4 н/о н/о +5.1 +4.3 95 +1 +1 тепло 1018.5 1012.4 0.3
01 20.02 З 3-5
{6}
н/о н/о +5.2 +4.0 92 +2 +2 тепло 1018.2 1012.1
02 20.02 ЮЗ 3-4
{5}
н/о н/о +5.0 +4.1 94 +1 +1 тепло 1017.9 1011.8
03 20.02 ЮЗ 3-5
{6}
н/о н/о +5.1 +4.0 93 +2 +2 тепло 1017.5 1011.4
04 20.02 ЮЗ 4-5
{7}
н/о н/о +5.2 +4.2 93 +1 +1 тепло 1017.2 1011.1
05 20.02 ЮЗ 4-5
{6}
н/о н/о +5.4 +4.3 93 +1 +1 тепло 1016.8 1010.7
06 20.02 ЮЗ 3 н/о н/о +5.3 +4.1 92 +2 +2 тепло 1016.5 1010.4 +4.9 +5.4 0.3
07 20.02 ЮЗ 4-7
{7}
н/о н/о +5.5 +4.2 91 +1 +1 тепло 1016.2 1010.1
08 20.02 ЮЗ 4-6
{8}
н/о н/о +5.6 +3.8 88 +2 +2 тепло 1015.7 1009.6
09 20.02 ЮЗ 5 н/о н/о +6.4 +4.1 85 +2 +2 тепло 1014.9 1008.9
10 20.02 ЮЗ 5-8
{10}
н/о н/о +7.3 +3.9 79 +3 +3 тепло 1014.2 1008.2
11 20.02 ЮЗ 5-8
{9}
н/о н/о +8.0 +3.7 74 +4 +4 тепло 1013.4 1007.4
12 20.02 ЮЗ 6-10
{10}
н/о н/о +8.1 +4.1 76 +4 +4 тепло 1012.4 1006.4
13 20.02 ЮЗ 5-9
{11}
н/о н/о +8.2 +4.8 79 +5 +5 тепло 1011.2 1005.2
14 20.02 ЮЗ 6-10
{10}
н/о н/о +7.9 +5.8 87 +4 +4 тепло 1010.0 1004.0
15 20.02 ЮЗ 5-8
{11}
н/о н/о +8.0 +6.2 88 +4 +4 тепло 1009.2 1003.2 0.4
16 20.02 ЮЗ 6-9
{9}
н/о н/о +7.6 +6.6 93 +3 +3 тепло 1008.3 1002.3
17 20.02 ЮЗ 6-12
{12}
н/о н/о +7.8 +6.8 93 +3 +3 тепло 1007.8 1001.8
18 20.02 ЮЗ 6 н/о н/о +8.1 +7.2 94 +4 +4 тепло 1007.4 1001.5 +5.4 +8.4 3
19 20.02 ЮЗ 6-9
{11}
н/о н/о +8.5 +7.2 92 +4 +4 тепло 1006.9 1001.0
20 20.02 З 6-10
{13}
н/о н/о +9.0 +7.6 91 +5 +5 тепло 1006.4 1000.5
21 20.02 З 6-9
{13}
н/о н/о +9.4 +7.8 90 +6 +6 тепло 1005.8 999.9
22 20.02 З 7-12
{12}
н/о н/о +9.8 +8.0 89 +6 +6 тепло 1005.5 999.6
23 20.02 З 8-12
{12}
н/о н/о +10.0 +8.1 88 +6 +6 тепло 1005.4 999.5
00 21.02 З 6 н/о н/о +9.6 +8.7 94 +6 +6 тепло 1005.6 999.7 0.2
01 21.02 З 6-11
{11}
н/о н/о +9.6 +8.1 90 +6 +6 тепло 1005.6 999.7
02 21.02 З 5-8
{10}
н/о н/о +9.4 +7.7 89 +6 +6 тепло 1006.0 1000.1
03 21.02 З 5-8
{11}
н/о н/о +9.1 +7.0 87 +6 +6 тепло 1006.2 1000.3 0.2
04 21.02 З 5-7
{9}
н/о н/о +8.8 +6.8 87 +5 +5 тепло 1006.1 1000.2
05 21.02 З 6-8
{9}
н/о н/о +8.6 +6.4 86 +5 +5 тепло 1006.3 1000.4
06 21.02 З 5 н/о н/о +8.3 +6.1 86 +5 +5 тепло 1006.2 1000.3 +8.1 +10.1 0.4
07 21.02 З 4-5
{8}
н/о н/о +8.2 +6.0 86 +5 +5 тепло 1006.3 1000.4
08 21.02 З 4-6
{8}
н/о н/о +8.3 +6.3 87 +5 +5 тепло 1006.2 1000.3
09 21.02 З 5 н/о н/о +7.9 +6.5 91 +4 +4 тепло 1006.3 1000.4 0.5
10 21.02 СЗ 7-11
{11}
н/о н/о +7.4 +6.0 91 +3 +3 тепло 1007.2 1001.2
11 21.02 СЗ 8-12
{14}
н/о н/о +7.2 +5.8 91 +2 +2 тепло 1008.2 1002.2
12 21.02 З 9-14
{15}
н/о н/о +9.1 +3.6 68 +5 +5 тепло 1008.4 1002.5 1
13 21.02 З 9-13
{16}
н/о н/о +9.3 +2.7 63 +5 +5 тепло 1008.4 1002.5
14 21.02 СЗ 10-19
{19}
н/о н/о +9.9 +2.0 58 +6 +6 тепло 1008.6 1002.7
15 21.02 З 8-11
{19}
н/о н/о +9.3 +2.2 61 +5 +5 тепло 1008.9 1003.0
16 21.02 З 6-9
{16}
н/о н/о +7.6 +3.1 73 +4 +4 тепло 1009.4 1003.4
17 21.02 З 6-9
{10}
н/о н/о +7.4 +2.6 72 +3 +3 тепло 1010.5 1004.5
18 21.02 З 5 н/о н/о +6.9 +2.7 75 +3 +3 тепло 1011.0 1005.0 +6.5 +10.0 0.2
19 21.02 З 4-5
{9}
н/о н/о +6.4 +2.5 76 +3 +3 тепло 1011.2 1005.2
20 21.02 З 4-6
{7}
н/о н/о +6.1 +2.3 77 +2 +2 тепло 1011.5 1005.5
21 21.02 ЮЗ 3-5
{9}
н/о н/о +5.5 +2.7 82 +2 +2 тепло 1011.7 1005.7
22 21.02 З 4-6
{6}
н/о н/о +5.5 +2.7 82 +2 +2 тепло 1011.6 1005.6
23 21.02 ЮЗ 3-4
{6}
н/о н/о +4.9 +2.4 84 +1 +1 тепло 1011.2 1005.2
00 22.02 ЮЗ 3 н/о н/о +4.4 +2.0 84 +1 +1 тепло 1010.5 1004.4
01 22.02 ЮЗ 3-5
{5}
н/о н/о +4.1 +1.7 84 0 0 тепло 1009.3 1003.2
02 22.02 Ю 4-6
{6}
н/о н/о +4.0 +1.4 83 -0 -0 тепло 1007.3 1001.3
03 22.02 Ю 4-6
{6}
н/о н/о +4.4 +1.7 83 0 0 по сезону 1005.5 999.5
04 22.02 Ю 5-8
{8}
н/о н/о +5.2 +2.8 84 +1 +1 тепло 1003.8 997.8
05 22.02 ЮЗ 5-8
{8}
н/о н/о +5.8 +5.0 95 +1 +1 тепло 1002.0 996.0
06 22.02 ЮЗ 5 н/о н/о +6.8 +5.9 94 +3 +3 тепло 1000.5 994.6 +3.9 +6.9 0.5
07 22.02 ЮЗ 6-11
{11}
н/о н/о +8.3 +6.7 90 +4 +4 тепло 1000.0 994.1
08 22.02 ЮЗ 6-10
{10}
н/о н/о +9.7 +7.1 84 +6 +6 тепло 999.6 993.7
09 22.02 З 7 н/о н/о +10.4 +7.8 84 +7 +7 тепло 999.3 993.4 0.1
10 22.02 З 8-13
{15}
н/о н/о +10.4 +8.2 86 +6 +6 тепло 998.8 993.0
11 22.02 З 8-13
{16}
н/о н/о +10.4 +7.9 84 +7 +7 тепло 998.5 992.7
12 22.02 З 8-13
{16}
н/о н/о +10.3 +8.3 87 +6 +6 тепло 998.4 992.6 0.9
13 22.02 З 8-14
{14}
н/о н/о +10.5 +8.7 89 +7 +7 тепло 998.3 992.5
14 22.02 СЗ 5-8
{13}
н/о н/о +9.8 +8.6 92 +7 +7 тепло 998.2 992.3

 

Местоположение метеостанции Berlin (Германия): широта 52.47 долгота 13.40 высота над уровнем моря 50 м.

В архиве по умолчанию представлена погода в Berlin за последнюю неделю. Архивные данные за месяц целиком и за предыдущие месяцы, начиная с января 2011 года, Вы можете получить, выбрав интересующий диапазон дат из раскрывающегося списка и нажав кнопку "Ввод!".

Внимание! Время в таблицах - всемирное. Для получения местного времени необходимо прибавить поправку, которая в Berlin равна 1 ч.

Смотрите также архив погоды в соседних городах и на ближайших метеорологических станциях:

Погода в Berlin-Dahlem (Германия) (7 км)
Погода в Berlin-Tegel (Германия) (12 км)
Погода в Berlin-Schonefeld (Германия) (13 км)
Погода в Potsdam (Германия) (25 км)
Погода в Baruth (Германия) (42 км)
Погода в Lindenberg (Германия) (56 км)
Погода в Neuruppin (Германия) (62 км)
Погода в Angermuende (Германия) (74 км)
Погода в Wiesenburg (Германия) (74 км)
Погода в Manschnow (Германия) (78 км)

Пояснения к столбцам:

Ветер - указаны скорость ветра в м/с - средняя за 10 мин, порывы в срок и между сроками (в фигурных скобках) и направление, откуда дует ветер: С - северный, СВ - северо-восточный, В - восточный, ЮВ - юго-восточный, Ю - южный, ЮЗ - юго-западный, З - западный, СЗ - северо-западный.
Видимость - горизонтальная дальность видимости в метрах или километрах. При видимости от 1 до 10 км при отсутствии осадков обычно наблюдается дымка, при ухудшении видимости до 1 км и менее - туман. В сухую погоду видимость может ухудшаться дымом, пылью или мглою.
Явления - указаны атмосферные явления, наблюдавшиеся в срок или в последний час перед сроком; фигурными скобками обозначены явления, наблюдавшиеся между сроками (за 1-3 часа до срока); квадратными скобками обозначены град или гололедные отложения с указанием их диаметра в мм.
Облачность - указаны через наклонную черту общая и нижняя облачность в баллах и высота нижней границы облаков в метрах; квадратными скобками обозначены формы облаков: Ci - перистые, Cs - перисто-слоистые, Cc - перисто-кучевые, Ac - высококучевые, As - высокослоистые, Sc - слоисто-кучевые, Ns - слоисто-дождевые, Cu - кучевые, Cb - кучево-дождевые. Подробнее классификацию облаков см. в Атласе облаков (PDF).
T - Температура воздуха - температура, измеренная на высоте 2 м над землей.
Td - Температура точки росы - температура, при понижении до которой содержащийся в воздухе водяной пар достигнет насыщения.
f - Относительная влажность воздуха - влажноcть воздуха, измеренная на высоте 2 м над землей.
Te - Эффективная температура - температура, которую ощущает одетый по сезону человек в тени. Характеристика душности погоды. При расчете учитывается влияние влажности воздуха и скорости ветра на теплоощущения человека.
Tes - Эффективная температура на солнце - температура, которую ощущает человек, с поправкой на солнечный нагрев. Характеристика знойности погоды. Зависит от высоты солнца над горизонтом, облачности и скорости ветра. Ночью, в пасмурную погоду, а также при ветре 12 м/с и более поправка равна нулю.
P - Атмосферное давление - приведенное к уровню моря атмосферное давление.
Po - Атмосферное давление - измеренное на уровне метеостанции атмосферное давление.
Tmin - Минимальная температура - минимум температуры воздуха на высоте 2 м над землей.
Tmax - Максимальная температура - максимум температуры воздуха на высоте 2 м над землей.
R - Количество осадков - Количество выпавших осадков, мм. При наведении курсора мыши на число - период времени, за который выпало указанное количество осадков.
S - Снежный покров - Высота снежного покрова, см. При наведении курсора мыши на число - состояние снежного покрова и степень покрытия местности в баллах.